Weather in Kanash

Russia / Chuvash Republic     55°30′24″N   47°29′30″E
temp.,
°C
wind,
m/s
gust,
m/s
humid.,
%
clouds,
%
prec.,
mm/h
press.,
hPa
HPBL,
m
17 september, fri
fri1700:00+7nw5969100 0.0 1015427
03:00+6wnw4866100 0.0 1015389
06:00+6nw4865100 0.0 1016398
09:00+7nw5655100 0.0 1016999
12:00+8nw5647100 0.1 10161648
15:00+8nw5647100 0.1 10161506
18:00+7nw3555100 0.0 1016254
21:00+5nw376583 0.1 1017232
18 september, sat
sat1800:00+3wnw49745 0.0 1017201
03:00+1nw410955 0.0 1018239
06:00+3nw4987100 0.0 1019498
09:00+5nnw5781100 0.1 1020663
12:00+8n465592 0.1 10211576
15:00+9n574220 0.2 10211597
18:00+6nnw335592 0.0 102234
21:00+3n34755 0.0 102346
19 september, sun
sun1900:00+1nnw36825 0.0 1024111
03:000nnw33835 0.0 102534
06:00−1nw2287100 0.0 102635
09:00+5nnw3460100 0.0 1026560
12:00+8nnw3346100 0.0 10261080
15:00+9n334193 0.0 10251253
18:00+5nne125688 0.0 102510
21:00+4ene2262100 0.0 102624
20 september, mon
mon2000:00+3ene3370100 0.0 102646
03:00+1ene4982100 0.0 1027170
06:000ene4980100 0.0 1027213
09:00+5e5758100 0.0 1028513
12:00+8e5649100 0.0 1027950
15:00+8ese4648100 0.0 10271078
18:00+7e485398 0.0 1027314
21:00+5e51156100 0.0 1026319
21 september, tue
tue2100:00+6e51156100 0.0 1026403
03:00+6e51158100 0.0 1025406
06:00+6e61260100 0.0 1024426
09:00+7e71255100 0.0 1023541
12:00+8ese61153100 0.1 1023778
15:00+7ese61269100 0.7 1022668
18:00+6ese61374100 0.3 1021605
21:00+7ese61174100 0.3 1020528